Regional Weather Roundup
Issued by NWS

Home | Current Version | Previous Version | Graphics & Text | Print | Product List | Glossary On
Versions: 1 2 3 4 5 6 7 8 9 10 11 12 13 14 15 16 17 18 19 20 21 22 23 24 25 26 27 28 29 30 31 32 33 34 35 36 37 38 39 40 41 42 43 44 45 46 47 48 49 50
000
ASUS45 KPSR 281010
RWRAZ

ARIZONA REGIONAL HOURLY WEATHER ROUNDUP
NATIONAL WEATHER SERVICE PHOENIX AZ
300 AM MST SUN DEC 28 2014

NOTE: FAIR INDICATES FEW OR NO CLOUDS BELOW 12,000 FEET WITH NO
SIGNIFICANT WEATHER AND/OR OBSTRUCTIONS TO VISIBILITY.

AZZ001>003-036-281100-
NORTHWEST ARIZONA

CITY           SKY/WX    TMP DP  RH WIND       PRES   REMARKS
BULLHEAD CITY  CLEAR     39  16  38 CALM      30.34S
KINGMAN        PTCLDY    21  12  68 E3        30.27F
$$

AZZ004>008-015-016-018-281100-
NORTH CENTRAL ARIZONA

CITY           SKY/WX    TMP DP  RH WIND       PRES   REMARKS
GRAND CANYON   PTCLDY     7   3  84 CALM      30.22F
PRESCOTT       CLEAR     20   9  62 S6        30.26S WCI  12
FLAGSTAFF      CLEAR      9   4  80 CALM      30.20S
PAYSON         CLEAR     25   9  50 CALM      30.25F
PAGE           CLEAR     27   8  44 CALM      30.25S
$$

AZZ009>014-017-281100-
NORTHEAST ARIZONA

CITY           SKY/WX    TMP DP  RH WIND       PRES   REMARKS
WINSLOW        CLEAR     16  12  84 E6        30.27R WCI   7
SAINT JOHNS    CLEAR     18  10  71 S5        30.23S WCI  11
WINDOW ROCK    CLEAR      2  -4  76 CALM      30.21S
SHOW LOW       CLEAR     14   5  67 S5        30.23S WCI   6
$$

AZZ023-281100-
GREATER PHOENIX AREA

CITY           SKY/WX    TMP DP  RH WIND       PRES   REMARKS
PHOENIX        CLEAR     41  24  51 CALM      30.27R
BUCKEYE          N/A     34  18  51 N7        30.29F WCI  28
LUKE AFB       CLEAR     37  21  53 N6        30.28R WCI  32
DEER VALLEY    CLEAR     35  20  54 CALM      30.27R
SCOTTSDALE     CLEAR     35  23  61 NW3       30.28R
MESA-GATEWAY   CLEAR     32  23  69 SE7       30.29S WCI  26
$$

AZZ027-028-281100-
SOUTHWEST MARICOPA COUNTY AND PINAL COUNTY

CITY           SKY/WX    TMP DP  RH WIND       PRES   REMARKS
CASA GRANDE    CLEAR     30  18  59 CALM      30.27S
GILA BEND      FAIR      35  22  58 SE5       30.30R WCI  31
$$

AZZ503-504-507>509-281100-
SOUTHEAST ARIZONA

CITY           SKY/WX    TMP DP  RH WIND       PRES   REMARKS
TUCSON         CLEAR     32  28  85 E6        30.27F WCI  26
DAVIS-MONTHAN  CLEAR     32  24  71 SE5       30.25F WCI  28
NOGALES        CLEAR     24  14  65 E6        30.23F WCI  17
SIERRA VISTA   CLEAR     28  14  55 CALM      30.23F
DOUGLAS        CLEAR     19  16  88 CALM      30.25F
SAFFORD        CLEAR     26  20  77 CALM      30.27S
$$

AZZ020-021-025-026-031-281100-
SOUTHWEST ARIZONA

CITY           SKY/WX    TMP DP  RH WIND       PRES   REMARKS
YUMA           CLEAR    N/A N/A N/A CALM      30.30F
$$

CAZ031-033-041-043-047-048-061-281100-
SOUTHERN CALIFORNIA

CITY           SKY/WX    TMP DP  RH WIND       PRES   REMARKS
DOWNTOWN L.A.  CLEAR     47  22  37 NE5       30.28F
L.A. AIRPORT   PTCLDY    46  24  42 E3        30.29S
SAN DIEGO      PTCLDY    46  24  42 CALM      30.31S
BURBANK        CLEAR     42  23  46 CALM      30.27F
ONTARIO        PTCLDY    40  26  57 NE3       30.28F
RIVERSIDE      CLEAR     39  22  50 NE6       30.29F WCI  35
PALM SPRINGS   CLEAR     42  18  37 NW5       30.33F
EL CENTRO NAS  CLEAR     37  11  34 W10       30.32S WCI  30
IMPERIAL       CLEAR     37  14  38 W5        30.31F WCI  33
BLYTHE         CLEAR     36  18  48 W6        30.32F WCI  31
NEEDLES        CLEAR     36  11  35 W3        30.31F
$$

NVZ020-UTZ003-281100-
SOUTHERN NEVADA-UTAH

CITY           SKY/WX    TMP DP  RH WIND       PRES   REMARKS
LAS VEGAS      MOCLDY    34  11  38 S9        30.27S WCI  27
SALT LAKE CITY CLOUDY    26  16  65 SE9       30.17F WCI  17
$$

NMZ009-TXZ055-281100-
NEW MEXICO-WEST TEXAS

CITY           SKY/WX    TMP DP  RH WIND       PRES   REMARKS
ALBUQUERQUE    PTCLDY    23   9  55 N3        30.23S
EL PASO        CLEAR     30  28  92 E3        30.24S
$$


........................KEY........................
SKY/WX - SKY CONDITION/WEATHER
TMP    - TEMPERATURE IN FAHRENHEIT
DP     - DEW POINT IN FAHRENHEIT
RH     - RELATIVE HUMIDITY IN PERCENT
WIND   - DIRECTION AND SPEED IN MILES PER HOUR (MPH)
VRB    - VARIABLE WIND DIRECTION
PRES   - MEAN SEA LEVEL PRESSURE IN INCHES OF MERCURY
         F - FALLING PRESSURE   R - RISING PRESSURE
         S - STEADY PRESSURE
VSB    - VISIBILITY IN MILES
HX     - HEAT INDEX IN FAHRENHEIT
WCI    - WIND CHILL INDEX IN FAHRENHEIT
TC     - TEMPERATURE IN CELSIUS WHICH IS ALSO KNOWN AS
         TEMPERATURE IN CENTIGRADE
AFB    - AIR FORCE BASE
         LUKE AFB IS LUKE AIR FORCE BASE
         DAVIS-MONTHAN IS DAVIS-MONTHAN AIR FORCE BASE
NAS    - NAVAL AIR STATION
         EL CENTRO NAS IS EL CENTRO NAVAL AIR STATION
N/A    - NOT AVAILABLE


USA.gov is the U.S. government's official web portal to all federal, state and local government web resources and services.